Location: Unspecified
(49.2170°N, 0.0000°E)
Time: 15:34:55
(UTC+00:00)

Vanguard 1 - Pass Details

Date: 22 June 2021
Orbit: 651 x 3832 km, 34.2° (Epoch: 23 July)

Event Time Altitude Azimuth Distance (km) Brightness Sun altitude
Rises 20:22:54 0° 230° (SW) 7,731 14.7 -2.5°
Reaches altitude 10° 20:28:24 10° 224° (SW) 6,863 14.4 -3.2°
Maximum altitude 20:49:23 44° 163° (SSE) 4,395 13.0 -5.6°
Drops below altitude 10° 21:05:40 10° 99° (E) 5,450 13.4 -7.4°
Sets 21:09:22 0° 93° (E) 6,094 13.7 -7.8°
